Regional Weather Roundup
Issued by NWS Newport/Morehead, NC

Current Version | Previous Version | Text Only | Print | Product List | Glossary On
Versions: 1 2 3 4 5 6 7 8 9 10 11 12 13 14 15 16 17 18 19 20 21 22 23 24 25 26 27 28 29 30 31 32 33 34 35 36 37 38 39 40 41 42 43 44 45 46 47 48 49 50
000
ASUS42 KMHX 271225
RWRMHX
WEATHER ROUNDUP FOR EASTERN NORTH CAROLINA
NATIONAL WEATHER SERVICE NEWPORT/MOREHEAD CITY NC
800 AM EDT TUE SEP 27 2016

NOTE: "FAIR" INDICATES FEW OR NO CLOUDS BELOW 12,000 FEET
WITH NO SIGNIFICANT WEATHER AND/OR OBSTRUCTIONS TO VISIBILITY

NCZ015>017-031-032-045>047-102-103-271300-
NORTH COAST

CITY           SKY/WX    TMP DP  RH WIND       PRES   REMARKS
EDENTON        CLOUDY    75  67  77 S5        29.98R
ELIZABETH CITY PTSUNNY   72  66  81 S3        29.97S
KITTY HAWK     CLOUDY    75  71  86 S3        29.97S
MANTEO         PTSUNNY   76  67  76 SW9       29.98F

$$

NCZ045>047-081-094-103-104-271300-
CENTRAL COAST

CITY           SKY/WX    TMP DP  RH WIND       PRES   REMARKS
FRISCO         CLOUDY    78  67  68 S8        29.98R

$$

NCZ095-097-098-100-101-271300-
SOUTHERN COAST

CITY           SKY/WX    TMP DP  RH WIND       PRES   REMARKS
BEAUFORT       LGT RAIN  74  70  87 CALM      29.97S
CEDAR ISLAND   NOT AVBL
JACKSONVILLE   CLOUDY    72  68  87 N3        29.96F
PINEY ISLAND   LGT RAIN N/A N/A N/A CALM      29.97S
WILMINGTON     CLOUDY    71  68  90 E3        29.95F


$$

NCZ011>013-027>030-043-044-078>080-089-090>093-098-271300-
COASTAL PLAIN

CITY           SKY/WX    TMP DP  RH WIND       PRES   REMARKS
AHOSKIE        CLOUDY    68  67  97 CALM      29.99R
CLINTON        PTSUNNY   70  70  98 CALM      29.98R
ELIZABETHTOWN  CLOUDY    70  70 100 CALM      29.96F FOG
GOLDSBORO      CLOUDY    70  70 100 NW5       29.96R
GREENVILLE     CLOUDY    70  70 100 CALM      30.00R
HAVELOCK       PTSUNNY   71  68  90 CALM      29.98S
KENANSVILLE    MOSUNNY   68  68 100 CALM      29.97S FOG
KINSTON        MOSUNNY   70  70 100 CALM      29.98S
NEW BERN       CLOUDY    70  68  93 CALM      29.98F
RICHLANDS      CLOUDY    69  68  96 CALM      29.97F
ROCKY MOUNT    CLOUDY    69  69 100 CALM      29.98R FOG
WASHINGTON     CLOUDY    71  67  89 SE3       29.97S
WHITEVILLE     NOT AVBL

$$

AMZ130-135-150-152-154-156-158-170-250-252-270-ANZ085-086-088-633-658-670-271300-
MARINE OBSERVATIONS

STATION/POSITION TIME  TEMP    WIND        PRES    WAVE   SWELL
                       AIR SEA DIR/SP/G            HT/PER HT/PER
                 (UTC) (F)     (DEG/KT/KT) (MB)    (FT/S) (FT/S)
CHESAPEAKE LIGHT NOT AVBL
64 E VA BEACH    1150   75 74  200/ 10/ 14 1015.0    4/ 6   3/ 6
DUCK             1200   76 76  200/  5/  7 1014.6
2 E DUCK         1141      76                N/A     3/ 5   2/13
OREGON INLET     1200   76 76  170/  5/  6 1015.2
13E OREGON INLT  1200      76                N/A     3/ 6   3/ 5
HATTERAS CG      1200   78 78  200/  4/  6 1015.0
DIAMOND BUOY     1150   80 84  170/ 10/ 14 1015.1    3/ 5   3/ 5
CAPE LOOKOUT     1200   78     110/  7/  8 1014.5
BEAUFORT LAB     1200   76 76   80/  2/  3 1014.2
30 SE NEW RVR IN 1208   78 82  130/ 12/ 16 1014.3
30 SE NEW RVR IN 1155      82                N/A     4/ 5
27 SE WRIGHTSVLE 1208   80 81  120/  4/  6 1014.4
5 SE WRIGHTSVLE  NOT AVBL
225 S CAPE HAT   1150   77 83  120/ 23/ 27 1013.4    6/ 6   2/13
41 SE CHARLESTON 1150   75 82   80/  2/  4 1013.6    3/ 8   3/ 8

$$



USA.gov is the U.S. government's official web portal to all federal, state and local government web resources and services.